THORAD AGENA D DEB, 4654

Orbit data source: Space-Track

THORAD AGENA D DEB, 4654 is space debris in SSO originally from a launch on Wed, 08 Apr 1970 UTC launched from the Air Force Western Test Range (AFWTR). Debris objects in space refer to the collection of defunct objects orbiting the Earth. Examples of debris include non-operational satellites, rocket bodies, and fragments generated from explosions, collisions, or faulty payload assembly.

Loading next visibility...
Identifier
4654, 1970-025AN
Orbit
SSO
Country
Flag of USUS
Related business
Manufacturer
Unknown
Mission
Spacecraft
Bus & Motor
Unknown
Mass
Unknown
Launch date (UTC)
1970-04-08 (56 years ago)
Launch vehicle
Unknown
Launch site
Air Force Western Test Range (AFWTR)
Object type
Payload
Rocket body
Debris
Shape & HBR
Unknown shape, 0.1 m
Radar Cross Section
Small (<0.1 m²)

Expand to show TLE details & history
Last TLE update: 8 hours ago

TLE from 8 hours ago
0 THORAD AGENA D DEB
1 04654U 70025AN  25297.94550893  .00003266  00000-0  16999-2 0  9994
2 04654 100.0185  76.7207 0025617 359.1513   0.9608 14.15289140806645
Epoch: 2025-10-24T22:41Z
TLE epoch observation values (Epoch: 2025-10-24T22:41:31.971Z)
Latitude
-0.00012°
Longitude
62.75438°
Altitude
825.697 km
Speed
7.45 km/s
True Right ascension
05h 06m 52s
True Declination
0° 00' 00"
Sunlit
Object was in full shadow at epoch
Visualization orbit readout
Latitude
Unknown
Longitude
Unknown
Altitude
Unknown
Speed
Unknown
Apparent Right ascension
Unknown
Apparent Declination
Unknown
Sunlit
N/A
Visualization observer readout
Local Sidereal Time
02:08:46
Azimuth
Unknown
Elevation
Unknown
Doppler factor
Unknown
Orbital elements
Apogee altitude
857.048 km
Perigee altitude
820.074 km
Semi-major axis
7,216.698 km
Eccentricity
0.00256
Inclination
100.0185°
RAAN
76.7207°
Arg. of periapsis
359.1513°
True anomaly
0.96574°
Mean anomaly
0.9608°
Eccentric anomaly
0.96327°
Mean motion
3.54026 °/min
Orbital period
101.69 mins
BSTAR
0.0016999

Documentation

Showing up to 5 results
|